Showing default

TURKSAT 1C, 23949

Orbit data source: Space-Track

TURKSAT 1C, 23949 is a payload satellite owned by Turk (TR) in GEO that was launched on Tue, 09 Jul 1996 UTC via an ARIANE 44L launch vehicle from the French Guiana (FRGUI). Payload-class satellites include a variety of spacecraft equipped with specific instruments for various scientific and technological missions. These include communications satellites like Starlink; space stations such as the ISS; scientific satellites like the Hubble; Earth observation satellites from companies like Planet Labs, Umbra, and HawkEye 360; GPS; miniature CubeSats for education and research; and military/defense satellites.

Not visible in the next 10 days
Identifier
23949, 1996-040B
Orbit
GEO
Country
Flag of UnknownUnknown / TURK
Related business
Manufacturer
Ae/Cannes
Mission
Non-operational Civil Communications
Bus & Motor
SPACEBUS 2000, S400
Mass
1,743 kg wet, 789 kg dry
Launch date (UTC)
1996-07-09 (29 years ago)
Launch vehicle
ARIANE 44L
Launch site
French Guiana (FRGUI)
Object type
Payload
Rocket body
Debris
Shape & HBR
Hex Poly + 2 Pan, 1.1 m
Radar Cross Section
2.935 m², Large (>1 m²)

Expand to show TLE details & history
Last TLE update: 19 hours ago

TLE from 19 hours ago
0 TURKSAT 1C
1 23949U 96040B   25251.09526407  .00000119  00000-0  00000-0 0  9995
2 23949  11.6232  32.3160 0008333 162.6297 209.1208  1.00310796106858
Epoch: 2025-09-08T02:17Z
TLE epoch observation values (Epoch: 2025-09-08T02:17:10.815Z)
Latitude
2.32532°
Longitude
22.06089°
Altitude
35,805.639 km
Speed
3.073 km/s
True Right ascension
02h 55m 02s
True Declination
2° 19' 23"
Sunlit
Object was in daylight at epoch
Visualization orbit readout
Latitude
Unknown
Longitude
Unknown
Altitude
Unknown
Speed
Unknown
Apparent Right ascension
Unknown
Apparent Declination
Unknown
Sunlit
N/A
Visualization observer readout
Local Sidereal Time
13:42:47
Azimuth
Unknown
Elevation
Unknown
Doppler factor
Unknown
Orbital elements
Apogee altitude
35,811.797 km
Perigee altitude
35,741.542 km
Semi-major axis
42,154.806 km
Eccentricity
0.00083
Inclination
11.6232°
RAAN
32.316°
Arg. of periapsis
162.6297°
True anomaly
209.07437°
Mean anomaly
209.1208°
Eccentric anomaly
209.09758°
Mean motion
0.25077 °/min
Orbital period
1,435.59 mins
BSTAR
0
Loading maneuver chart data...
Computing Atmospheric mass density...
Loading historical data...
Loading historical data...
Loading historical data...
Loading historical data...
Loading historical data...
Loading historical data...
Loading historical data...

Documentation

Showing up to 5 results
|